[[{"header":{"parameterUnit":"m.s-1","parameterCategory":1,"la1":30.2991,"la2":30.254,"lo1":-89.0895,"lo2":-89.0444,"dy":0.0017,"dx":0.0017,"nx":28,"ny":28,"refTime":"2024-04-07T21:00:00:Z","depth":0,"parameterNumber":2,"parameterNumberName":"U-component_of_WINDS"},"data":[0,0,0,0,0,0,0,0,0,0,0,0,0,0,0,0,0,0,0,0,0,0,0,0,0,0,0,0,0,0,0,0,0,0,0,0,0,0,0,0,0,0,0,0,0,0,0,0,0,0,0,0,0,0,0,0,0,0,-6.6669,-6.667,0,-6.6737,-6.6738,-6.6739,-6.6686,-6.6684,-6.6682,-6.668,-6.6745,-6.6748,-6.6752,0,0,0,0,0,0,0,0,0,0,0,0,0,-6.6488,-6.6492,-6.6669,-6.667,-6.6671,-6.6737,-6.6738,-6.6739,-6.6687,-6.6684,-6.6681,-6.6679,-6.6743,-6.6748,-6.6753,0,0,0,0,0,0,0,0,0,0,0,0,0,-6.6563,-6.6493,-6.6669,-6.6653,-6.6652,-6.6737,-6.6738,-6.6739,-6.6687,-6.6684,-6.6681,-6.6678,-6.6742,-6.6748,-6.6753,-6.6856,0,0,-6.6771,-6.6773,0,0,0,0,0,0,0,0,-6.6558,-6.6569,-6.6654,-6.6654,-6.6653,-6.67,-6.6698,-6.6778,-6.6688,-6.6674,-6.668,-6.6676,-6.6732,-6.6739,-6.6759,-6.6859,-6.6862,-6.6771,-6.6775,-6.6777,-6.6779,0,0,0,0,0,0,0,-6.6553,-6.6566,-6.6696,-6.6656,-6.6655,-6.6641,-6.6647,-6.6713,-6.6721,-6.6675,-6.6671,-6.668,-6.6731,-6.6753,-6.676,-6.6863,-6.6771,-6.6776,-6.678,-6.6782,-6.705,-6.7053,0,0,0,0,0,0,-6.655,-6.6562,-6.6694,-6.6698,-6.6597,-6.6647,-6.6654,-6.6688,-6.672,-6.6722,-6.6683,-6.6678,-6.6745,-6.6753,-6.6762,-6.6883,-6.6777,-6.6783,-6.6786,-6.7046,-6.7051,-6.7055,0,0,0,0,0,0,-6.6547,-6.6563,-6.6691,-6.6629,-6.6644,-6.6653,-6.6692,-6.6692,-6.6713,-6.6727,-6.6727,-6.6704,-6.6743,-6.6754,-6.6833,-6.6884,-6.6785,-6.679,-6.7042,-6.7048,-6.7053,-6.7126,0,0,0,0,0,0,-6.6542,-6.6562,-6.6602,-6.6631,-6.6648,-6.6763,-6.6695,-6.6695,-6.6724,-6.6717,-6.6747,-6.6748,-6.6741,-6.6825,-6.6839,-6.689,-6.6795,-6.7037,-6.7044,-6.7051,-6.7119,-6.7134,-6.7146,0,0,0,0,0,-6.6536,-6.6619,-6.6604,-6.662,-6.6699,-6.6766,-6.6775,-6.6767,-6.6729,-6.6768,-6.6776,-6.6747,-6.6877,-6.6833,-6.6849,-6.6903,-6.7034,-6.7042,-6.705,-6.7113,-6.7131,-6.7146,0,0,0,0,0,0,-6.6594,-6.6623,-6.6606,-6.6702,-6.6732,-6.6757,-6.6806,-6.6786,-6.6826,-6.6818,-6.6805,-6.6812,-6.6895,-6.6907,-6.6858,-6.7003,-6.6949,-6.6961,-6.6992,-6.7008,-6.7022,-6.7015,-6.68,0,0,0,0,0,-6.6619,-6.6673,-6.6694,-6.6776,-6.6792,-6.6797,-6.6826,-6.6817,-6.6847,-6.6859,-6.6873,-6.6902,-6.6949,-6.698,-6.7024,-6.7122,-6.7126,-6.7167,-6.718,-6.7191,-6.72,-6.7251,-6.7268,-6.7082,-6.7082,-6.7081,0,0,-6.6669,-6.6691,-6.6725,-6.6788,-6.6811,-6.6865,-6.6808,-6.6868,-6.6907,-6.6867,-6.6942,-6.6955,-6.6986,-6.7074,-6.7114,-6.7087,-6.7253,-6.7202,-6.721,-6.7213,-6.7261,-6.7279,-6.7294,-6.7087,-6.7086,-6.7085,0,0,-6.6787,-6.6811,-6.6881,-6.6905,-6.694,-6.6943,-6.696,-6.6989,-6.6995,-6.7072,-6.7043,-6.7089,-6.7171,-6.7194,-6.7216,-6.7345,-6.7318,-6.736,-6.7428,-6.7478,-6.7492,-6.7505,-6.7548,-6.7564,-6.737,-6.737,-6.737,0,-6.6844,-6.6926,-6.6919,-6.6981,-6.7009,-6.6978,-6.7048,-6.7071,-6.7118,-6.7137,-6.7108,-6.721,-6.7229,-6.7321,-6.7353,-6.7373,-6.739,-6.7355,-6.7491,-6.7504,-6.7516,-6.7557,-6.7573,-6.7374,-6.7374,-6.7374,-6.7373,0,-6.6993,-6.7051,-6.7103,-6.7151,-6.7185,-6.7251,-6.7252,-6.7287,-6.7276,-6.7282,-6.7359,-6.7381,-6.7429,-6.7451,-6.744,-6.7542,-6.7524,-6.7493,-6.7438,-6.7538,-6.7576,-6.7592,-6.7381,-6.7379,-6.7378,-6.7377,0,0,-6.7147,-6.7192,-6.7211,-6.7232,-6.7269,-6.7312,-6.7377,-6.7425,-6.7454,-6.7489,-6.754,-6.7611,-6.7583,-6.7608,-6.76,-6.7645,-6.7742,-6.7608,-6.7608,-6.7629,-6.7852,-6.7873,-6.7891,-6.7727,-6.773,-6.7732,-6.7849,0,-6.7265,-6.7378,-6.7374,-6.7478,-6.7529,-6.7502,-6.7558,-6.7586,-6.7593,-6.7637,-6.7645,-6.7694,-6.7655,-6.767,-6.7713,-6.7721,-6.7786,-6.7713,-6.7771,-6.7773,-6.7761,-6.7912,-6.7933,-6.8042,-6.7864,-6.7867,-6.7868,0,-6.7416,-6.7457,-6.7567,-6.7597,-6.7618,-6.7668,-6.7711,-6.7755,-6.7786,-6.7788,-6.7818,-6.7803,-6.7865,-6.7812,-6.7897,-6.7847,-6.7872,-6.788,-6.7884,-6.7885,-6.7824,-6.7914,-6.8077,-6.8092,-6.7892,-6.789,-6.7889,0,-6.7514,-6.7597,-6.7673,-6.7692,-6.7729,-6.7764,-6.7781,-6.7809,-6.7838,-6.7876,-6.7895,-6.794,-6.7963,-6.7997,-6.7994,-6.7956,-6.808,-6.8026,-6.8081,-6.8081,-6.8105,-6.8103,-6.827,-6.8127,-6.8127,-6.8126,-6.8126,0,-6.7643,-6.7711,-6.7717,-6.7763,-6.7837,-6.7833,-6.7906,-6.7919,-6.7944,-6.7991,-6.7971,-6.8015,-6.801,-6.8054,-6.8052,-6.8122,-6.8133,-6.8135,-6.8133,-6.8135,-6.8134,-6.8147,-6.8138,-6.8131,-6.813,-6.8129,-6.8128,0,-6.7763,-6.777,-6.7851,-6.788,-6.7889,-6.7942,-6.7966,-6.8009,-6.8016,-6.8076,-6.809,-6.81,-6.8151,-6.8152,-6.821,-6.8209,-6.8293,-6.8284,-6.8282,-6.8279,-6.8333,-6.8326,-6.8512,-6.8535,-6.838,-6.8381,-6.8383,0,-6.7843,-6.7895,-6.793,-6.7961,-6.7981,-6.8031,-6.8061,-6.8059,-6.809,-6.813,-6.8168,-6.8218,-6.8256,-6.8339,-6.835,-6.8394,-6.8384,-6.8446,-6.839,-6.839,-6.8381,-6.8376,-6.838,-6.8456,-6.8457,-6.8459,-6.846,0,-6.7984,-6.7986,-6.8031,-6.8078,-6.8114,-6.8151,-6.8184,-6.821,-6.8212,-6.8248,-6.8301,-6.8332,-6.8392,-6.844,-6.8483,-6.8498,-6.8479,-6.8478,-6.8493,-6.8493,-6.8488,-6.8488,-6.8308,-6.8473,-6.8472,-6.8471,-6.847,-6.8469,-6.8084,-6.8128,-6.816,-6.8211,-6.8237,-6.8268,-6.831,-6.8323,-6.8368,-6.8417,-6.8413,-6.8471,-6.85,-6.8556,-6.8576,-6.862,-6.8598,-6.8619,-6.8624,-6.8629,-6.8633,-6.8485,-6.8628,-6.8628,-6.8627,-6.8627,-6.8627,0,-6.8221,-6.8241,-6.8288,-6.8336,-6.8376,-6.8358,-6.8394,-6.8427,-6.8479,-6.8509,-6.8549,-6.8608,-6.8656,-6.8672,-6.8717,-6.8749,-6.8741,-6.8761,-6.8756,-6.876,-6.8651,-6.8633,-6.8766,-6.8766,-6.8766,-6.8766,-6.8766,-6.8766,-6.8297,-6.837,-6.8375,-6.846,-6.8479,-6.8536,-6.8558,-6.8587,-6.8611,-6.8679,-6.8719,-6.873,-6.8754,-6.8801,-6.8843,-6.8846,-6.8862,-6.8885,-6.8884,-6.8782,-6.8768,-6.8754,-6.8736,-6.889,-6.889,-6.8988,-6.8989,-6.899]},{"header":{"parameterUnit":"m.s-1","parameterCategory":1,"la1":30.2991,"la2":30.254,"lo1":-89.0895,"lo2":-89.0444,"dy":0.0017,"dx":0.0017,"nx":28,"ny":28,"refTime":"2024-04-07T21:00:00:Z","depth":0,"parameterNumber":3,"parameterNumberName":"V-component_of_WINDS"},"data":[0,0,0,0,0,0,0,0,0,0,0,0,0,0,0,0,0,0,0,0,0,0,0,0,0,0,0,0,0,0,0,0,0,0,0,0,0,0,0,0,0,0,0,0,0,0,0,0,0,0,0,0,0,0,0,0,0,0,3.9119,3.9118,0,3.9077,3.9077,3.9076,3.9031,3.903,3.9029,3.9029,3.8983,3.8982,3.8981,0,0,0,0,0,0,0,0,0,0,0,0,0,3.9156,3.9156,3.9119,3.9118,3.9118,3.9077,3.9077,3.9076,3.9031,3.903,3.9029,3.9028,3.8983,3.8982,3.8981,0,0,0,0,0,0,0,0,0,0,0,0,0,3.913,3.9155,3.9119,3.909,3.9087,3.9078,3.9077,3.9076,3.9031,3.903,3.9029,3.9028,3.8983,3.8982,3.8981,3.8995,0,0,3.8978,3.8978,0,0,0,0,0,0,0,0,3.9131,3.9128,3.9095,3.9092,3.9089,3.9058,3.9073,3.9049,3.9031,3.9052,3.9029,3.9028,3.9008,3.9005,3.8999,3.8993,3.8991,3.8978,3.8978,3.8977,3.8977,0,0,0,0,0,0,0,3.9133,3.913,3.9102,3.9094,3.9091,3.9079,3.9074,3.9068,3.9036,3.905,3.9047,3.9043,3.9006,3.9,3.8998,3.899,3.8978,3.8977,3.8977,3.8976,3.8995,3.8996,0,0,0,0,0,0,3.914,3.9132,3.9103,3.9101,3.9108,3.9079,3.9073,3.9069,3.9036,3.903,3.9044,3.9041,3.9003,3.8999,3.8996,3.9012,3.8977,3.8976,3.8976,3.8994,3.8995,3.8997,0,0,0,0,0,0,3.9141,3.9138,3.9105,3.9115,3.911,3.9079,3.9075,3.9069,3.9063,3.9031,3.9025,3.9044,3.9002,3.8998,3.8996,3.9009,3.8976,3.8975,3.8993,3.8995,3.8996,3.9042,0,0,0,0,0,0,3.9142,3.9138,3.9144,3.9116,3.911,3.9107,3.9075,3.9069,3.9062,3.9058,3.903,3.9024,3.9001,3.8998,3.8996,3.9007,3.8974,3.8992,3.8994,3.8995,3.9039,3.9045,3.905,0,0,0,0,0,3.9143,3.9157,3.9144,3.9141,3.9116,3.9108,3.9104,3.9078,3.9063,3.9068,3.9048,3.9025,3.9009,3.8998,3.8995,3.9007,3.8991,3.8993,3.8995,3.9037,3.9044,3.905,0,0,0,0,0,0,3.9185,3.9153,3.9138,3.9143,3.9129,3.91,3.9105,3.9086,3.9075,3.9071,3.9038,3.9032,3.9035,3.9021,3.901,3.902,3.8996,3.8998,3.9029,3.9035,3.9041,3.9044,3.8974,0,0,0,0,0,3.9195,3.9192,3.9163,3.917,3.9164,3.9136,3.9131,3.9113,3.9096,3.9089,3.9069,3.9053,3.9044,3.9039,3.9029,3.9037,3.9031,3.9044,3.9049,3.9054,3.9055,3.906,3.9066,3.9004,3.9004,3.9004,0,0,3.9215,3.9197,3.9196,3.9178,3.9165,3.9162,3.9131,3.9128,3.9126,3.9088,3.9087,3.9072,3.9051,3.9056,3.9056,3.9044,3.9071,3.9057,3.9061,3.906,3.9063,3.9069,3.9074,3.9006,3.9006,3.9005,0,0,3.925,3.9236,3.9241,3.9229,3.921,3.9192,3.9193,3.9168,3.9157,3.9156,3.9128,3.9124,3.9109,3.9097,3.9088,3.9122,3.91,3.9119,3.9147,3.9152,3.9156,3.9161,3.9173,3.9178,3.9121,3.9121,3.9121,0,3.9277,3.9272,3.9246,3.9246,3.9239,3.9207,3.9212,3.9201,3.918,3.9175,3.9162,3.9145,3.9129,3.913,3.9139,3.9133,3.9134,3.9122,3.9158,3.9162,3.9165,3.9177,3.9182,3.9124,3.9123,3.9123,3.9123,0,3.9306,3.9303,3.9309,3.9292,3.9285,3.9288,3.9262,3.9259,3.9242,3.9225,3.9225,3.9205,3.9191,3.919,3.9172,3.919,3.9183,3.9164,3.914,3.9174,3.9185,3.9189,3.9127,3.9126,3.9126,3.9125,0,0,3.9364,3.9334,3.9336,3.9329,3.9307,3.9303,3.9305,3.9293,3.9292,3.9278,3.9279,3.9269,3.9253,3.9243,3.9224,3.9228,3.9257,3.9209,3.9208,3.9219,3.9276,3.929,3.9296,3.9244,3.9244,3.9245,3.9278,0,3.9395,3.9397,3.9375,3.9382,3.938,3.9351,3.9352,3.9339,3.9324,3.9319,3.9302,3.9296,3.9274,3.9269,3.9272,3.9253,3.9268,3.925,3.9243,3.9243,3.9249,3.9301,3.9315,3.9347,3.9282,3.9282,3.9283,0,3.9431,3.9422,3.943,3.9409,3.9407,3.9409,3.9398,3.9394,3.9378,3.9367,3.9358,3.9337,3.9337,3.9316,3.9315,3.9304,3.93,3.929,3.9291,3.9289,3.9265,3.93,3.9357,3.9362,3.9289,3.9288,3.9288,0,3.9474,3.9463,3.9467,3.9461,3.9437,3.9439,3.9429,3.9413,3.9408,3.9398,3.9394,3.9384,3.9378,3.9371,3.9348,3.9334,3.935,3.9326,3.9341,3.9342,3.9345,3.9345,3.9402,3.9343,3.9343,3.9343,3.9343,0,3.9511,3.9517,3.9486,3.9488,3.9494,3.9469,3.9476,3.9463,3.9449,3.9448,3.9422,3.9422,3.9391,3.9388,3.937,3.9373,3.937,3.9361,3.9356,3.9363,3.9365,3.936,3.9357,3.9344,3.9344,3.9343,3.9343,0,3.9558,3.9538,3.954,3.9518,3.9513,3.9519,3.9499,3.9501,3.9485,3.9484,3.9483,3.9458,3.9453,3.9429,3.9417,3.9406,3.9415,3.9405,3.942,3.9417,3.9434,3.9432,3.9489,3.9495,3.9433,3.9433,3.9434,0,3.9583,3.9588,3.9567,3.9565,3.9557,3.9554,3.9549,3.9525,3.9522,3.9506,3.9509,3.9502,3.9495,3.9488,3.9468,3.946,3.9449,3.947,3.9448,3.9456,3.945,3.945,3.9451,3.9474,3.9475,3.9476,3.9476,0,3.963,3.962,3.9615,3.9608,3.9604,3.9596,3.9587,3.9587,3.956,3.9557,3.9552,3.9547,3.9537,3.953,3.9519,3.9508,3.9488,3.9484,3.9487,3.9494,3.9503,3.9499,3.9433,3.9482,3.9482,3.9481,3.9481,3.9481,3.9667,3.967,3.9656,3.9652,3.9643,3.9636,3.9637,3.9622,3.9618,3.9608,3.9594,3.9591,3.9577,3.9561,3.9551,3.9549,3.9537,3.9542,3.9543,3.9544,3.9548,3.9504,3.9547,3.9546,3.9546,3.9546,3.9546,0,3.9713,3.9703,3.97,3.9689,3.9686,3.9669,3.9658,3.9657,3.9655,3.9644,3.9639,3.9634,3.9628,3.9609,3.9601,3.9603,3.9594,3.9602,3.9601,3.9599,3.9558,3.9557,3.961,3.961,3.961,3.961,3.961,3.9609,3.9736,3.9741,3.973,3.973,3.972,3.9718,3.9714,3.9707,3.9698,3.9695,3.969,3.9679,3.9665,3.9656,3.965,3.9645,3.9643,3.9654,3.9646,3.9608,3.9602,3.9596,3.9594,3.9654,3.9654,3.9687,3.9687,3.9688]}]]